www.pogodaiklimat.ru

Погода и климат >> Архив погоды >> Россия >> Камчатский край >> Мыс Озерной


ПОГОДА на Мысе Озерном

  • Прогноз погоды на Мысе Озерном
  • Монитор погоды на Мысе Озерном

АРХИВ ПОГОДЫ на Мысе Озерном

Время (UTC), дата Ветер
(напр.,м/с)
 
Видим.   Явления Облачность Т
(С)
Тd
(С)
f
(%)
Тe
(С)
Тes
(С)
Комфортность P
(гПа)
Po
(гПа)
Тmin
(С)
Tmax
(С)
R
(мм)
R24
(мм)
S
(см)
00 13.09 В 2 50 км 1/1 600 м
[Cu hum]
+11.0 +4.0 62 +10 +16 1013.6 1012.5
06 13.09 ЮВ 1 50 км 1/0
[Ci fib]
+9.5 +3.6 67 +9 +10 1012.7 1011.6
09 13.09 З 3 20 км ясно +3.5 +2.3 92 -1 -1 1013.2 1012.1 +11.3
12 13.09 СЗ 4 20 км ясно +0.5 -0.1 96 -5 -5 1013.4 1012.2
18 13.09 З 4 20 км ясно -1.5 -2.1 96 -7 -7 1012.7 1011.5
21 13.09 З 3 50 км ясно +1.9 +0.8 92 -3 -1 1012.5 1011.3 -1.7
00 14.09 С 5 50 км ясно +10.8 +3.7 61 +8 +12 1011.7 1010.6
06 14.09 С 2 50 км ясно +10.7 +3.4 61 +10 +10 1010.6 1009.5
09 14.09 СЗ 1 20 км ясно +3.4 +1.2 85 +2 +2 1011.4 1010.3 +11.5
12 14.09 СЗ 3 20 км ясно +0.3 -1.2 90 -4 -4 1011.8 1010.6
18 14.09 З 3 20 км ясно +0.8 -0.4 92 -4 -4 1011.9 1010.7
21 14.09 СЗ 3 50 км 4/1
[Sc Ci fib]
+3.3 +1.3 87 -1 0 1012.6 1011.5 -1.4
00 15.09 ЮВ 3 50 км 3/1 600 м
[Sc Ci fib]
+11.3 +5.9 69 +10 +14 1012.2 1011.1
06 15.09 ЮВ 2 50 км 9/0
[Cs]
+9.8 +5.6 75 +8 +9 1012.1 1011.0
09 15.09 Ю 1 20 км 9/8 600 м
[Sc Ci fib]
+10.1 +7.3 83 +10 +10 1013.2 1012.1 +11.5
12 15.09 Ю 1 20 км 10/3 600 м
[Sc Cs]
+10.1 +7.7 85 +10 +10 1013.7 1012.6
18 15.09 СЗ 3 20 км 10/1 600 м
[Sc As op]
+6.3 +5.6 95 +3 +3 1014.8 1013.7
21 15.09 З 2 20 км 10/0
[As op]
+8.2 +6.8 91 +6 +6 1016.1 1015.0 +5.6
00 16.09 З 2 50 км 9/1 600 м
[Sc Ac As]
+12.5 +6.8 68 +12 +14 1016.7 1015.6
06 16.09 Ю 2 50 км 1/0
[Ac trans]
+12.2 +7.1 71 +11 +12 1017.2 1016.1
09 16.09 З 2 20 км ясно +5.5 +4.3 92 +3 +3 1018.8 1017.7 +14.0
12 16.09 СЗ 4 20 км ясно +2.5 +1.8 95 -3 -3 1019.2 1018.1
18 16.09 З 4 20 км 1/0
[Ac lent]
+0.4 -0.1 96 -5 -5 1017.6 1016.4
21 16.09 З 2 20 км 4/3 200 м
[St Ac trans Ci fib]
+2.7 +1.9 94 -1 0 1017.6 1016.5 -0.4
00 17.09 штиль 0 10 км туман на расстоянии 3/1 100 м
[St Ci fib]
+11.2 +8.1 81 +11 +18 1016.0 1014.9
06 17.09 ЮВ 3 50 км 1/1 300 м
[St]
+11.8 +7.3 74 +10 +11 1012.4 1011.3
09 17.09 СЗ 1 20 км 1/0
[Ci fib]
+8.0 +6.7 91 +7 +7 1011.2 1010.1 +15.5
12 17.09 штиль 0 20 км ясно +9.7 +2.5 61 +9 +9 1009.9 1008.8
18 17.09 З 3 20 км 1/1 600 м
[Sc]
+0.3 -0.3 96 -5 -5 1008.4 1007.2
21 17.09 СЗ 2 50 км 1/1 300 м
[St]
+10.6 +6.1 74 +9 +11 1008.1 1007.0 -0.1
00 18.09 Ю 3 50 км ясно +12.8 +5.8 62 +12 +16 1008.0 1006.9
06 18.09 Ю 1 50 км 3/3 600 м
[Sc]
+10.4 +6.6 77 +10 +11 1008.1 1007.0
09 18.09 ЮВ 2 20 км 8/8 600 м
[Sc]
+9.5 +6.3 80 +8 +8 1008.9 1007.8 +13.1
12 18.09 З 2 20 км 1/1 600 м
[Sc]
+4.8 +3.7 93 +2 +2 1008.8 1007.7
18 18.09 СЗ 2 20 км 9/1 1000 м
[Sc Ac trans]
+4.8 +4.1 95 +2 +2 1008.4 1007.3
21 18.09 З 1 50 км 10/0
[Ac trans Cs]
+6.6 +5.8 95 +5 +7 1008.7 1007.6 +3.0
00 19.09 штиль 0 20 км 10/8 600 м
[Sc Cs]
+10.9 +7.5 80 +10 +12 1009.0 1007.9
06 19.09 штиль 0 20 км 10/3 600 м
[Cb cap Ac As]
+10.5 +8.1 85 +10 +10 1009.1 1008.0
09 19.09 СЗ 1 10 км слаб. ливневой дождь 10/10 300 м
[Cb cap]
+8.3 +7.2 93 +7 +7 1010.0 1008.9 +11.4 0.4
12 19.09 СЗ 2 10 км слаб. дождь 10/10 300 м
[Frnb Ns]
+7.9 +6.9 93 +6 +6 1010.1 1009.0
18 19.09 З 2 20 км в посл. час ливневой дождь 9/9 600 м
[Cb cap]
+6.5 +5.7 95 +4 +4 1010.5 1009.4
21 19.09 З 3 50 км 4/3 600 м
[Sc diur, vesp Ci fib]
+8.4 +6.4 87 +6 +6 1011.6 1010.5 +6.1 10

 

Местоположение метеостанции Мыс Озерной (Камчатский край, Россия): широта 57.65 долгота 163.20 высота над уровнем моря 9 м.

В архиве по умолчанию представлена погода на Мысе Озерном за последнюю неделю. Архивные данные за месяц целиком и за предыдущие месяцы, начиная с января 2011 года, Вы можете получить, выбрав интересующий диапазон дат из раскрывающегося списка и нажав кнопку "Ввод!".


*Определитесь, кто Вы:
робот инопланетянин человек

Внимание! Время в таблицах - всемирное. Для получения местного времени необходимо прибавить поправку, которая равна 12 ч.

Смотрите также архив погоды в соседних городах и на ближайших метеорологических станциях:

Погода в Усть-Камчатске (Камчатский край, Россия) (162 км)
Погода на Мысе Африка (Камчатский край, Россия) (164 км)
Погода в Оссоре (Камчатский край, Россия) (176 км)
Погода в Ключах (Камчатский край, Россия) (207 км)
Погода в Палане (Камчатский край, Россия) (250 км)
Погода в Усть-Воямполке (Камчатский край, Россия) (259 км)
Погода в Козыревске (Камчатский край, Россия) (273 км)
Погода в Тигиле (Камчатский край, Россия) (274 км)
Погода на Острове Беринга (Камчатский край, Россия) (319 км)
Погода в Эссо (Камчатский край, Россия) (334 км)

Пояснения к столбцам:

Ветер - указаны скорость ветра в м/с - средняя за 10 мин, порывы в срок и между сроками (в фигурных скобках) и направление, откуда дует ветер: С - северный, СВ - северо-восточный, В - восточный, ЮВ - юго-восточный, Ю - южный, ЮЗ - юго-западный, З - западный, СЗ - северо-западный.
Видимость - горизонтальная дальность видимости в метрах или километрах. При видимости от 1 до 10 км при отсутствии осадков обычно наблюдается дымка, при ухудшении видимости до 1 км и менее - туман. В сухую погоду видимость может ухудшаться дымом, пылью или мглою.
Явления - указаны атмосферные явления, наблюдавшиеся в срок или в последний час перед сроком; фигурными скобками обозначены явления, наблюдавшиеся между сроками (за 1-3 часа до срока); квадратными скобками обозначены град или гололедные отложения с указанием их диаметра в мм.
Облачность - указаны через наклонную черту общая и нижняя облачность в баллах и высота нижней границы облаков в метрах; квадратными скобками обозначены формы облаков: Ci - перистые, Cs - перисто-слоистые, Cc - перисто-кучевые, Ac - высококучевые, As - высокослоистые, Sc - слоисто-кучевые, Ns - слоисто-дождевые, Cu - кучевые, Cb - кучево-дождевые. Подробнее классификацию облаков см. в Атласе облаков (PDF).
T - Температура воздуха - температура, измеренная на высоте 2 м над землей.
Td - Температура точки росы - температура, при понижении до которой содержащийся в воздухе водяной пар достигнет насыщения.
f - Относительная влажность воздуха - влажноcть воздуха, измеренная на высоте 2 м над землей.
Te - Эффективная температура - температура, которую ощущает одетый по сезону человек в тени. Характеристика душности погоды. При расчете учитывается влияние влажности воздуха и скорости ветра на теплоощущения человека.
Tes - Эффективная температура на солнце - температура, которую ощущает человек, с поправкой на солнечный нагрев. Характеристика знойности погоды. Зависит от высоты солнца над горизонтом, облачности и скорости ветра. Ночью, в пасмурную погоду, а также при ветре 12 м/с и более поправка равна нулю.
P - Атмосферное давление - приведенное к уровню моря атмосферное давление.
Po - Атмосферное давление - измеренное на уровне метеостанции атмосферное давление.
Tmin - Минимальная температура - минимум температуры воздуха на высоте 2 м над землей.
Tmax - Максимальная температура - максимум температуры воздуха на высоте 2 м над землей.
R - Количество осадков - Количество выпавших осадков за период времени, мм. При наведении курсора мыши на число - период времени, за который выпало указанное количество осадков.
R24 - Количество осадков - Количество выпавших осадков за 24 часа, мм.
S - Снежный покров - Высота снежного покрова, см. При наведении курсора мыши на число - состояние снежного покрова и степень покрытия местности в баллах.